Regional Weather Roundup
Issued by NWS

Home | Current Version | Previous Version | Text Only | Print | Product List | Glossary Off
Versions: 1 2 3 4 5 6 7 8 9 10 11 12 13 14 15 16 17 18 19 20 21 22 23 24 25 26 27 28 29 30 31 32 33 34 35 36 37 38 39 40 41 42 43 44 45 46 47 48 49 50

890
ASUS43 KDTX 282201
RWRMI
MICHIGAN HOURLY REGIONAL WEATHER ROUNDUP
NATIONAL WEATHER SERVICE DETROIT/PONTIAC MI
600 PM EDT FRI APR 28 2017

NOTE: "FAIR" INDICATES FEW OR NO CLOUDS BELOW 12,000 FEET WITH NO
SIGNIFICANT WEATHER AND/OR OBSTRUCTION TO VISIBILITY.

MIZ047>049-052>055-059>063-066>070-074>076-081>083-282300-
SOUTHEAST LOWER MICHIGAN

CITY           SKY/WX    TMP DP  RH WIND       PRES   REMARKS
ADRIAN         LGT RAIN  58  48  69 S8        29.95F
ALMA           CLOUDY    61  43  51 SW5G17    29.91F
ANN ARBOR      CLOUDY    61  43  51 S15       29.95F
BAD AXE        CLOUDY    63  43  47 W10G16    29.92F
CARO           CLOUDY    64  44  47 SW9       29.91F
DETROIT CITY   CLOUDY    61  42  49 S14       29.97S
DETROIT        CLOUDY    62  43  49 S14       29.97F
FLINT          CLOUDY    62  42  47 S12       29.93F
GROSSE ILE     PTSUNNY   58  49  71 S9        29.97F
HILLSDALE      CLOUDY    55  45  67 S3        29.93F
HOWELL         CLOUDY    61  39  45 S9        29.93S

CITY           SKY/WX    TMP DP  RH WIND       PRES   REMARKS
JACKSON        CLOUDY    60  42  51 S12       29.94R
LAMBERTVILLE   LGT RAIN  57  49  76 SW5       29.96F
LANSING        CLOUDY    62  41  46 S10       29.92F
LAPEER         FAIR      63  40  43 S10G17    29.94F
MASON          CLOUDY    61  44  53 S10G16    29.93R
MONROE         CLOUDY    60  47  61 S7G21     29.94F
MT. CLEMENS    CLOUDY    60  46  60 S15       29.95F
PONTIAC        CLOUDY    61  41  47 S9        29.93F
PORT HOPE        N/A     64  42  44 W9G17     29.91S
PORT HURON     CLOUDY    59  39  47 S13G20    29.96F
TRI CITIES     CLOUDY    61  45  55 W9        29.92F
MIDLAND        PTSUNNY   62  41  45 SW7       29.90F
TROY           PTSUNNY   64  36  36 S9        29.98S
SAGINAW HB     CLOUDY    63  41  45 SW8       29.91F
$$
MIZ043>046-050>051-056>058-064>065-071>073-077>080-282300-
SOUTHWEST LOWER MICHIGAN

CITY           SKY/WX    TMP DP  RH WIND       PRES   REMARKS
BATTLE CREEK   CLOUDY    61  43  51 S14       29.91S
BENTON HARBOR  CLOUDY    61  44  53 E6        29.84F
BIG RAPIDS     CLOUDY    55  40  59 W8        29.89F
COLDWATER      CLOUDY    59  45  59 SE6       29.90F
FREMONT        CLOUDY    54  40  59 NW6       29.89F
HOLLAND        CLOUDY    57  45  64 CALM      29.89F
GRAND RAPIDS   CLOUDY    60  46  59 S10       29.89F
IONIA          CLOUDY    61  41  47 S6        29.88F
KALAMAZOO      CLOUDY    61  40  45 S9        29.90F
LUDINGTON      LGT RAIN  45  34  64 CALM      29.93S
MARSHALL       CLOUDY    61  43  51 SE12      29.91F
MOUNT PLEASANT PTSUNNY   60  42  51 SW8       29.89F
MUSKEGON       CLOUDY    55  42  61 NW5       29.90F
SOUTH HAVEN    CLOUDY    60  44  55 E6        29.87F
$$
MIZ016>042-282300-
NORTHERN LOWER MICHIGAN

CITY           SKY/WX    TMP DP  RH WIND       PRES   REMARKS
ALPENA         SUNNY     49  36  61 NE12      29.90F
BEAVER ISLAND  MOSUNNY   41  29  63 SW14G21   29.95S
BELLAIRE       CLOUDY    46  30  55 NW3       29.95S
CADILLAC       MOSUNNY   56  35  44 SW15G21   29.90R
CHARLEVOIX     SUNNY     44  31  61 W14       29.98F
FRANKFORT      CLOUDY    44  32  63 W3        29.95F
GAYLORD        SUNNY     49  32  52 NW12      29.91F
GRAYLING       SUNNY     56  34  44 W10G16    29.90R
HARBOR SPRINGS MOSUNNY   42  30  60 W10G17    29.95F
HOUGHTON LAKE  CLOUDY    59  33  37 W14G23    29.89S
MANISTEE       CLOUDY    46  33  60 W7        29.94S
OSCODA         SUNNY     65  32  28 W14G24    29.88S
PELLSTON       MOSUNNY   43  27  53 W17       29.95F
ROGERS CITY    SUNNY     47  34  59 NW17G25   29.91F
TRAVERSE CITY  CLOUDY    50  33  52 NW12      29.92S
$$
MIZ007>008-015-282300-
EASTERN UPPER MICHIGAN

CITY           SKY/WX    TMP DP  RH WIND       PRES   REMARKS
KINROSS        CLOUDY    40  28  62 SW10G18   29.93R WCI  33
MACKINAC ISLAN CLOUDY    40  31  70 SW10G20   29.95F WCI  33
NEWBERRY       CLOUDY    41  29  61 SW9       29.92R
S. S. MARIE    CLOUDY    39  30  70 N9        29.93R WCI  33
MUNISING         N/A     38  29  70 NW12      29.93R WCI  30
$$
MIZ004>006-011>014-085-282300-
CENTRAL UPPER MICHIGAN

CITY           SKY/WX    TMP DP  RH WIND       PRES   REMARKS
MANISTIQUE     MOSUNNY   41  32  72 S12       29.92S
ESCANABA       CLOUDY    43  31  62 S9        29.93R
MENOMINEE      MOSUNNY   50  30  46 VRB6      29.91F
SAWYER-GWINN   CLOUDY    39  28  65 NW7       29.91R WCI  34
$$
MIZ001>003-009>011-084-282300-
WESTERN UPPER MICHIGAN

CITY           SKY/WX    TMP DP  RH WIND       PRES   REMARKS
IRON MOUNTAIN  CLOUDY    43  28  55 W8        29.91R
HOUGHTON       CLOUDY    36  26  67 W17G29    29.89R WCI  26
COPPER HARBOR    N/A     37  30  75 NW14G24   29.89R WCI  28
IRONWOOD       CLOUDY    41  26  55 NW13      29.93R
$$

ABBREVIATIONS USED IN REMARKS
   TC - TEMPERATURE IN CELSIUS
  WCI - WIND CHILL INDEX
   HX - HEAT INDEX
  VSB - VISIBILITY





USA.gov is the U.S. government's official web portal to all federal, state and local government web resources and services.